Location: Fort Wayne
(41.1310°N, 85.1290°W)
Time: 16:33:28
(UTC-05:00)

SR - Visible Passes

Search period start: 28 November 2014 00:00
Search period end: 08 December 2014 00:00
Orbit: 578 x 886 km, 66.7° (Epoch: 27 November)

Date Brightness Start Highest point End Pass type
(mag) Time Alt. Az. Time Alt. Az. Time Alt. Az.
28 Nov ? 04:41:46 10° SSE 04:46:39 27° ESE 04:51:28 10° NE visible
28 Nov ? 06:22:51 10° SW 06:28:36 50° NW 06:34:11 10° NNE visible
29 Nov ? 03:55:36 10° SE 03:58:35 14° ESE 04:01:32 10° ENE visible
29 Nov ? 05:35:13 16° SSW 05:40:04 88° WNW 05:45:51 10° NNE visible
30 Nov ? 04:50:39 46° SSE 04:51:40 51° ESE 04:57:15 10° NE visible
30 Nov ? 06:30:17 16° W 06:34:06 29° NW 06:39:03 10° N visible
01 Dec ? 04:05:11 24° E 04:05:11 24° E 04:08:14 10° NE visible
01 Dec ? 05:44:47 48° WNW 05:45:23 50° NW 05:50:56 10° NNE visible
02 Dec ? 04:58:49 44° NNE 04:58:49 44° NNE 05:02:35 10° NNE visible
02 Dec ? 06:38:22 17° WNW 06:39:46 18° NW 06:43:34 10° N visible
03 Dec ? 04:12:33 18° NE 04:12:33 18° NE 04:13:58 10° NE visible
03 Dec ? 05:52:05 27° NNW 05:52:05 27° NNW 05:55:45 10° N visible
04 Dec ? 05:05:36 22° N 05:05:36 22° N 05:07:37 10° NNE visible
04 Dec ? 06:45:08 11° NW 06:45:36 11° NW 06:47:10 10° NNW visible
05 Dec ? 04:18:57 12° NNE 04:18:57 12° NNE 04:19:16 10° NNE visible
05 Dec ? 05:58:28 15° NNW 05:58:28 15° NNW 06:00:13 10° N visible
06 Dec ? 05:11:42 13° N 05:11:42 13° N 05:12:24 10° N visible
